METLOCID,DATE_TIME,AVG_RH,STDDEV_RH,MIN_RH,MAX_RH,N_RH,N_COMMENTS
COHM,11/22/93,,,,,0,5
COHM,11/23/93,,,,,0,8
COHM,11/24/93,,,,,0,8
COHM,11/25/93,,,,,0,8
COHM,11/26/93,89.4375,10.21840945,77.97,98.68,4,4
COHM,11/27/93,95.40625,3.86764948,89.46,99.99,8,2
COHM,11/28/93,84.5875,2.382476203,81.15,88.15,8,0
COHM,11/29/93,73.12875,10.71293402,60.62,90.39,8,0
COHM,11/30/93,69.65375,8.720088364,58.73,81.46,8,0
COHM,12/1/93,72.8725,5.257744628,65.62,81.71,8,0
COHM,12/2/93,79.79125,9.690209252,67.26,99.99,8,1
COHM,12/3/93,89.48333333,6.172463507,72.6,95.6,30,0
COHM,12/4/93,84.135,4.562712426,72.59,90.7,48,0
COHM,12/5/93,80.30416667,3.67681513,73.83,85.02,48,0
COHM,12/6/93,68.44479167,7.174365415,54.79,79.81,48,0
COHM,12/7/93,77.89833333,9.554582355,65.3,96.04,48,0
COHM,12/8/93,83.195625,5.458962923,75.78,98.84,48,0
COHM,12/9/93,70.19854167,4.307138058,58.97,78.22,48,0
COHM,12/10/93,71.67854167,7.509584794,61.98,87.49,48,0
COHM,12/11/93,68.78875,10.46674503,51.74,89.31,48,0
COHM,12/12/93,88.611875,12.67711553,61.75,99.99,48,3
COHM,12/13/93,80.26729167,5.341175956,70.76,92.93,48,0
COHM,12/14/93,80.54645833,7.326957654,68.62,93.21,48,0
COHM,12/15/93,80.99541667,11.20485304,38.62,93.59,48,0
COHM,12/16/93,30.21541667,3.660642868,25.7,36.27,48,0
COHM,12/17/93,40.24520833,10.06522473,25.79,59.62,48,0
COHM,12/18/93,62.566875,6.584446908,46.25,78,48,0
COHM,12/19/93,75.32229167,8.512300047,64.8,93.11,48,0
COHM,12/20/93,96.9975,8.631534096,63.53,99.99,48,40
COHM,12/21/93,99.99,0,99.99,99.99,48,48
COHM,12/22/93,94.630625,5.864992212,80.06,99.99,48,17
COHM,12/23/93,89.89666667,8.140185667,69.24,98.23,48,0
COHM,12/24/93,75.22282609,7.745996145,62.85,90.42,46,0
COHM,12/25/93,82.31020833,7.0768825,56.88,89.94,48,0
COHM,12/26/93,70.42770833,12.91877855,36.81,91.11,48,0
COHM,12/27/93,75.80270833,13.46011835,53.99,94.79,48,0
COHM,12/28/93,90.98625,10.88839332,65.02,99.99,48,6
COHM,12/29/93,84.20020833,11.46616957,55.96,96.94,48,0
COHM,12/30/93,52.83166667,8.893651413,35.47,67.83,48,0
COHM,12/31/93,54.04145833,2.52186185,48.77,58.73,48,0
COHM,1/1/94,54.974375,2.704485562,49.78,62.9,48,0
COHM,1/2/94,54.1625,7.846417396,42.4,77.99,48,0
COHM,1/3/94,68.67875,4.454745318,58.82,84.47,48,0
COHM,1/4/94,81.83625,15.20798749,64.34,99.99,48,13
COHM,1/5/94,92.584375,3.904774985,82.29,97.09,48,0
COHM,1/6/94,94.566875,5.034306205,82.01,99.74,48,0
COHM,1/7/94,72.02875,12.33055858,53.47,93.7,48,0
COHM,1/8/94,70.42375,5.83814406,58.52,82.54,48,0
COHM,1/9/94,63.13583333,4.254766955,54,80.09,48,0
COHM,1/10/94,54.55395833,6.226672463,41.4,67.01,48,0
COHM,1/11/94,71.12666667,4.623574344,56.3,76.5,48,0
COHM,1/12/94,49.25916667,6.426433128,40.54,60.69,24,0
COHM,1/13/94,60.74,8.908935589,50.17,71.28,4,0
COHM,1/14/94,57.5,5.866520832,52.76,65.96,4,0
COHM,1/15/94,55.295,6.953533874,47.5,64.36,4,0
COHM,1/16/94,93.7175,4.077207991,88.04,97.26,4,0
COHM,1/17/94,92.3125,7.998818142,82.63,99.99,4,1
COHM,1/18/94,84.79666667,9.468984458,74.02,97.42,6,0
COHM,1/19/94,74.01375,6.756309089,62.33,81.49,8,0
COHM,1/20/94,63.77875,2.319805641,60,67.9,8,0
COHM,1/21/94,67.85,7.098128526,55.13,78.75,8,0
COHM,1/22/94,65.05,3.00852598,59.95,68.74,8,0
COHM,1/23/94,64.245,14.99405692,48.37,94.84,8,0
COHM,1/24/94,82.94125,9.77663313,67.71,94.86,8,0
COHM,1/25/94,79.525,4.959026402,68.98,84.33,8,0
COHM,1/26/94,81.1,6.202722904,73.91,90.43,8,0
COHM,1/27/94,75.81375,4.917051781,67.42,83.98,8,0
COHM,1/28/94,78.29,4.048421209,71.93,84.19,8,0
COHM,1/29/94,98.5825,3.535678355,89.89,99.99,8,6
COHM,1/30/94,95.9375,5.473363421,84.26,99.99,8,3
COHM,1/31/94,79.63875,13.18691823,60.82,99.99,8,1
COHM,2/1/94,87.5725,12.40077388,69.53,99.99,8,2
COHM,2/2/94,68.45666667,4.916160426,64.56,73.98,3,0
COHM,2/3/94,98.05375,4.499079072,87.16,99.99,8,6
COHM,2/4/94,86.40125,9.888623243,74.26,99.03,8,0
COHM,2/5/94,86.77375,10.08951639,77.64,99.99,8,2
COHM,2/6/94,99.99,0,99.99,99.99,8,8
COHM,2/7/94,79.50625,14.02622435,61.19,99.99,8,1
COHM,2/8/94,68.5325,8.28136074,60.36,86.64,8,0
COHM,2/9/94,72.635,18.47937151,57.62,99.99,8,1
COHM,2/10/94,95.77875,4.533098712,89.46,99.99,8,3
COHM,2/11/94,79.78,12.17426795,64.29,96.62,8,0
COHM,2/12/94,93.3075,7.516377832,78.8,99.99,8,2
COHM,2/13/94,65.91125,12.87582501,56.28,88.6,8,0
COHM,2/14/94,59.55,8.621334004,52.68,79.46,8,0
COHM,2/15/94,69.25875,10.85791934,56.77,81.54,8,0
COHM,2/16/94,66.6,8.739297128,52.82,77.95,8,0
COHM,2/17/94,59.3775,3.413535557,55.57,63.57,4,0
COHM,2/18/94,61.46625,10.59988671,52.27,85.05,8,0
COHM,2/19/94,96.7675,2.186757221,91.81,98.37,8,0
COHM,2/20/94,82.70125,11.23492188,69.3,97.26,8,0
COHM,2/21/94,85.54,10.8645084,69.69,96.48,8,0
COHM,2/22/94,65.9425,7.333879796,57.77,80.04,8,0
COHM,2/23/94,61.1025,6.106274876,53.87,69.37,8,0
COHM,2/24/94,55.6375,5.863976588,50.15,65.26,8,0
COHM,2/25/94,62.1475,4.57161975,56.73,68.88,8,0
COHM,2/26/94,68.4075,1.052748104,66.36,69.59,8,0
COHM,2/27/94,64.57375,2.171292818,61.56,67.59,8,0
COHM,2/28/94,61.075,4.700702075,53.43,65.8,8,0
COHM,3/1/94,62.0125,1.038649535,59.99,63.6,8,0
COHM,3/2/94,56.44,4.534275812,49.82,61.4,8,0
COHM,3/3/94,68.4325,5.350302395,60.75,75.47,8,0
COHM,3/4/94,73.91375,6.980579054,66.38,89.27,8,0
COHM,3/5/94,85.525,2.869420051,81.34,89.07,8,0
COHM,3/6/94,87.12,2.096227905,84.16,90.67,8,0
COHM,3/7/94,75.81625,9.860831517,63.86,87.89,8,0
COHM,3/8/94,76.485,3.508108974,71.14,82.4,8,0
COHM,3/9/94,88.09375,2.523891199,82.77,90.61,8,0
COHM,3/10/94,82.30375,11.38264335,62.9,97.37,8,0
COHM,3/11/94,90.02625,2.531142811,87.81,95.36,8,0
COHM,3/12/94,78.01375,11.68196771,59.71,91,8,0
COHM,3/13/94,86.97875,8.12241948,67.51,92.17,8,0
COHM,3/14/94,80.455,12.74119752,64.63,95.52,8,0
COHM,3/15/94,80.3775,13.3219376,65.71,95.83,8,0
COHM,3/16/94,64.76,4.338008101,59.13,70.58,8,0
COHM,3/17/94,70.09625,2.986832711,63.34,72.65,8,0
COHM,3/18/94,56.5175,2.679273622,53.87,60.85,8,0
COHM,3/19/94,65.0625,11.19519636,55.7,80.61,8,0
COHM,3/20/94,90.545,1.888302337,87.8,92.58,8,0
COHM,3/21/94,78.01,9.244405258,67.13,91.36,8,0
COHM,3/22/94,63.35625,6.458133161,56.81,75.31,8,0
COHM,3/23/94,76.625,2.671291822,73.71,81.94,8,0
COHM,3/24/94,64.44,4.627202178,59.16,74.05,8,0
COHM,3/25/94,68.74625,17.53095298,51.6,95.01,8,0
COHM,3/26/94,78.675,6.285686688,66.27,87.02,8,0
COHM,3/27/94,77.29125,16.26085873,56.22,93.33,8,0
COHM,3/28/94,64.43375,16.71339406,47.5,93.99,8,0
COHM,3/29/94,76.98875,7.664671156,66.63,88.38,8,0
COHM,3/30/94,59.36375,5.851534445,51.28,68.55,8,0
COHM,3/31/94,45.015,2.817440581,41.29,49.27,8,0
COHM,4/1/94,57.38,16.56698783,44.94,89.05,8,0
COHM,4/2/94,53.945,6.832405977,48.05,67.43,8,0
COHM,4/3/94,67.2725,1.789826408,65.49,70.46,8,0
COHM,4/4/94,55.40375,5.442911347,49.92,64.54,8,0
COHM,4/5/94,43.94,2.908259175,39.7,47.48,8,0
COHM,4/6/94,56.62125,5.466752594,46.17,63.96,8,0
COHM,4/7/94,48.8425,3.499451998,44.61,53.86,8,0
COHM,4/8/94,64.74,18.6076528,47.38,97.43,8,0
COHM,4/9/94,89.81375,10.30023292,72.35,99.95,8,0
COHM,4/10/94,61.64125,4.506967424,56.05,69.85,8,0
COHM,4/11/94,59.9275,2.551121602,55.71,63.2,8,0
COHM,4/12/94,62.1875,1.715015618,60.22,64.62,8,0
COHM,4/13/94,62.8175,4.699345699,59.54,71.28,8,0
COHM,4/14/94,87.87,10.19717888,71.75,96.3,8,0
COHM,4/15/94,88.22125,2.619058923,84.27,91.89,8,0
COHM,4/16/94,81.62875,2.107940345,79.91,86.59,8,0
COHM,4/17/94,56.73375,10.27827103,47.78,77.85,8,0
COHM,4/18/94,76.185,25.59827171,46.56,99.99,8,2
COHM,4/19/94,96.35375,3.382636071,92.08,99.99,8,2
COHM,4/20/94,81.4825,12.49241799,65.04,99.99,8,1
COHM,4/21/94,58.8275,2.366303627,55.73,61.81,8,0
COHM,4/22/94,73.61625,7.838964832,62.63,85.47,8,0
COHM,4/23/94,88.77,5.140722573,82.26,94.33,8,0
COHM,4/24/94,70.1025,10.4541253,58.46,88.82,8,0
COHM,4/25/94,85.45,20.35997123,48.63,97.61,8,0
COHM,4/26/94,69.5775,20.91674363,50.16,96.04,8,0
COHM,4/27/94,52.095,2.374639822,49.32,56.27,8,0
COHM,4/28/94,81.73875,10.95802698,58.81,91.27,8,0
COHM,4/29/94,94.6325,0.435717799,93.9,95.23,8,0
COHM,4/30/94,86.01,3.146317575,82.67,92.38,8,0
COHM,5/1/94,76.075,10.5837625,62.02,86.79,8,0
COHM,5/2/94,60.65,4.983269151,53.42,68.47,8,0
COHM,5/3/94,54.5825,5.298017823,48.16,62.19,8,0
COHM,5/4/94,65.23875,16.2228608,47.03,83.26,8,0
COHM,5/5/94,67.66,8.775771842,56.04,78.21,8,0
COHM,5/6/94,68.735,12.2571367,53.67,82.95,8,0
COHM,5/7/94,97.29125,2.579548341,90.98,98.52,8,0
COHM,5/8/94,96.65625,1.847461096,94.43,98.4,8,0
COHM,5/9/94,68.7675,12.34959774,50.24,84.05,8,0
COHM,5/10/94,77.68375,16.46864114,48.94,90.09,8,0
COHM,5/11/94,90.14375,4.349866788,82.62,94.28,8,0
COHM,5/12/94,86.27875,3.783960274,82.49,91.44,8,0
COHM,5/13/94,76.43,7.513709375,63.35,83.57,8,0
COHM,5/14/94,62.06875,1.604079064,60.09,64.1,8,0
COHM,5/15/94,75.9875,11.71972787,63.36,88.11,8,0
COHM,5/16/94,89.0375,0.186987395,88.74,89.23,8,0
COHM,5/17/94,87.405,0.746879221,86.47,88.48,8,0
COHM,5/18/94,88.78375,0.233417927,88.58,89.32,8,0
COHM,5/19/94,79.42,6.67458934,73.14,88.6,8,0
COHM,5/20/94,83.885,7.693843643,69.66,89.99,6,0
COHM,5/21/94,53.2725,9.090254986,43.45,69.67,8,0
COHM,5/22/94,77.67,8.206119668,66.23,86.74,8,0
COHM,5/23/94,72.1575,12.25024052,56.01,84.9,8,0
COHM,5/24/94,76.6725,4.361070478,70.18,80.3,8,0
COHM,5/25/94,64.16625,2.322627438,60.9,68.13,8,0
COHM,5/26/94,54.24,4.947492872,50.62,63.64,8,0
COHM,5/27/94,85.6225,2.108274515,81.31,87.7,8,0
COHM,5/28/94,74.5525,8.731898419,59.12,84.66,8,0
COHM,5/29/94,68.4475,7.457754833,55.16,75.31,8,0
COHM,5/30/94,81.415,8.514082452,60.97,85.77,8,0
COHM,5/31/94,84.195,3.577860494,78.36,86.77,8,0
COHM,6/1/94,76.565,6.785273971,64.07,82.75,8,0
COHM,6/2/94,85.80125,0.756730514,84.08,86.31,8,0
COHM,6/3/94,85.3025,1.232624957,83.05,86.6,8,0
COHM,6/4/94,72.29,8.363162423,59.2,82.8,8,0
COHM,6/5/94,73.92625,10.35334306,61.38,87.75,8,0
COHM,6/6/94,55.6575,4.857367747,50.2,63.74,8,0
COHM,6/7/94,40.15375,3.125681354,35.97,46.96,8,0
COHM,6/8/94,42.52125,2.037662789,40.3,45.71,8,0
COHM,6/9/94,41.5175,1.239593827,39.33,42.64,8,0
COHM,6/10/94,49.095,13.42027464,42.4,82.08,8,0
COHM,6/11/94,76.71125,16.07709856,52.26,94.59,8,0
COHM,6/12/94,61.55375,10.58180505,50.28,81.48,8,0
COHM,6/13/94,72.67375,14.76057774,48.11,87.17,8,0
COHM,6/14/94,70.2425,13.49233407,48.9,81.61,8,0
COHM,6/15/94,41.69,4.613015747,34.94,47.02,8,0
COHM,6/16/94,65.2425,17.69768165,36.68,95.76,8,0
COHM,6/17/94,82.5425,7.239160863,73.97,93.27,8,0
COHM,6/18/94,78.03125,19.28401813,51.76,97.67,8,0
COHM,6/19/94,60.5625,6.889907215,53.41,73.43,8,0
COHM,6/20/94,61.19125,10.77600169,45.38,72.74,8,0
COHM,6/21/94,49.80375,1.729128083,46.91,52.47,8,0
COHM,6/22/94,50.27625,1.090071262,48.82,51.52,8,0
COHM,6/23/94,54.9125,1.147005418,52.23,55.79,8,0
COHM,6/24/94,50.14,1.799126772,47.99,53.74,8,0
COHM,6/25/94,49.38375,4.684124975,43.71,56.93,8,0
COHM,6/26/94,78.8225,5.121887905,72.88,85.98,8,0
COHM,6/27/94,77.54125,12.38962174,63.5,92.54,8,0
COHM,6/28/94,90.18,3.489150531,85.42,94.89,8,0
COHM,6/29/94,90.77625,2.949377356,85.39,94.51,8,0
COHM,6/30/94,82.35125,4.105165518,75.84,89.09,8,0
COHM,7/1/94,51.3675,0.936295893,50.41,53.58,8,0
COHM,7/2/94,50.7475,6.784923939,44.66,66.48,8,0
COHM,7/3/94,66.5025,6.733154111,55.85,74.4,8,0
COHM,7/4/94,58.06875,6.962383495,52.18,72.45,8,0
COHM,7/5/94,86.925,7.575539585,73.23,94.08,8,0
COHM,7/6/94,90.03125,0.590869517,89.06,91.1,8,0
COHM,7/7/94,88.3025,1.923187458,85.32,90.11,8,0
COHM,7/8/94,87.69125,3.889055844,82.37,91.86,8,0
COHM,7/9/94,91.14625,0.411093924,90.23,91.49,8,0
COHM,7/10/94,89.47125,0.123801396,89.27,89.7,8,0
COHM,7/11/94,81.195,4.934082633,75.56,88.96,8,0
COHM,7/12/94,58.615,8.15892675,51.33,75.36,8,0
COHM,7/13/94,49.4275,6.352110448,39.34,57.4,8,0
COHM,7/14/94,53.01375,8.500334342,45.7,68.34,8,0
COHM,7/15/94,58.8975,5.283437058,54.13,69.69,8,0
COHM,7/16/94,79.64625,10.9435081,64.25,93.39,8,0
COHM,7/17/94,85.97375,13.31607293,62.69,96.3,8,0
COHM,7/18/94,82.2925,17.29543767,57.36,95.9,8,0
COHM,7/19/94,57.91,2.569102122,54.88,62.95,8,0
COHM,7/20/94,81.97,5.167162803,72.17,87.74,8,0
COHM,7/21/94,69.47,3.379323686,65.83,74.62,8,0
COHM,7/22/94,63.91125,4.338625317,57.29,70.44,8,0
COHM,7/23/94,58.88375,1.011193602,56.97,60.26,8,0
COHM,7/24/94,59.29125,0.813957484,57.57,60.01,8,0
COHM,7/25/94,66.79125,1.730816797,63.76,68.72,8,0
COHM,7/26/94,70.03875,0.770777669,69.02,71.02,8,0
COHM,7/27/94,56.19875,9.423709366,41.27,68.41,8,0
COHM,7/28/94,37.23625,10.39354599,28.78,60.18,8,0
COHM,7/29/94,44.02375,19.94600063,28.91,90.12,8,0
COHM,7/30/94,76.55375,9.217580931,61.35,90.29,8,0
COHM,7/31/94,73.5125,9.317674066,58.37,82.16,8,0
COHM,8/1/94,60.6525,15.21611622,45.41,81.92,8,0
COHM,8/2/94,45.805,1.220362944,43.08,47,8,0
COHM,8/3/94,50.92375,4.171505167,44.9,57.76,8,0
COHM,8/4/94,50.83125,0.883668288,49.72,52.46,8,0
COHM,8/5/94,55.635,3.785913741,48.98,61.52,8,0
COHM,8/6/94,47.575,1.740311959,44.65,50.72,8,0
COHM,8/7/94,44.5325,4.57206346,39.29,50.07,8,0
COHM,8/8/94,46.89,2.684846364,43.78,50.26,8,0
COHM,8/9/94,59.4825,17.16156982,45.16,87.94,8,0
COHM,8/10/94,76.12625,1.631440533,74.46,79.04,8,0
COHM,8/11/94,80.90125,2.133685192,77.4,83.72,8,0
COHM,8/12/94,66.7575,3.15188719,63.58,73.4,8,0
COHM,8/13/94,72.4375,3.855055123,67.76,77.28,8,0
COHM,8/14/94,61.29,6.433936809,54.62,71.53,8,0
COHM,8/15/94,55.32875,2.4619878,51.22,57.76,8,0
COHM,8/16/94,81.00875,8.405988405,60.63,86.25,8,0
COHM,8/17/94,83.4425,1.308442367,81.5,85.12,8,0
COHM,8/18/94,75.68875,3.251050105,70.27,81.97,8,0
COHM,8/19/94,69.13125,2.171302687,66.83,71.81,8,0
COHM,8/20/94,58.38,5.421718231,51.07,65.45,8,0
COHM,8/21/94,62.23125,1.640282532,59.58,64.01,8,0
COHM,8/22/94,61.49375,8.055436385,55.01,79.81,8,0
COHM,8/23/94,76.78625,4.629254607,68.01,82.04,8,0
COHM,8/24/94,51.90125,2.83395956,50.1,58.61,8,0
COHM,8/25/94,51.19375,4.298118982,48.58,61.24,8,0
COHM,8/26/94,84.1025,9.167805081,63.26,89.38,8,0
COHM,8/27/94,85.60375,2.931201302,81.03,89.19,8,0
COHM,8/28/94,59.89,14.68226822,48.97,84.69,8,0
COHM,8/29/94,51.0875,2.054873997,47.64,53.37,8,0
COHM,8/30/94,57.27375,16.44631347,39.88,89.58,8,0
COHM,8/31/94,75.4475,16.46105773,46.96,92.95,8,0
COHM,9/1/94,63.4075,18.65845327,45.75,90.64,8,0
COHM,9/2/94,71.69375,14.30328128,54.79,90.95,8,0
COHM,9/3/94,87.13,3.46805009,80.97,91.22,8,0
COHM,9/4/94,76.6425,9.802923398,65.19,86.9,8,0
COHM,9/5/94,86.61125,7.228632428,68.85,90.17,8,0
COHM,9/6/94,88.67375,0.227403826,88.36,88.95,8,0
COHM,9/7/94,81.8475,7.677891731,64.23,86.09,8,0
COHM,9/8/94,61.9425,23.2891187,35.9,86.41,8,0
COHM,9/9/94,53.3375,4.631150865,47.37,57.58,4,0
COHM,11/17/94,66.035,3.661954862,56.31,72.56,42,0
COHM,11/18/94,83.40083333,14.05062093,63.83,97.77,72,0
COHM,11/19/94,82.16902778,7.300555287,70.3,97.89,72,0
COHM,11/20/94,73.65208333,6.974785561,53.98,86.85,72,0
COHM,11/21/94,79.52166667,14.94937919,57.93,98.26,72,0
COHM,11/22/94,90.63791667,6.707377888,73.16,97.93,72,0
COHM,11/23/94,77.84083333,9.835194886,61.79,91.33,72,0
COHM,11/24/94,83.16319444,15.3154222,57.98,98.72,72,0
COHM,11/25/94,63.30277778,12.82796639,42.19,94.25,72,0
COHM,11/26/94,88.17888889,10.07293509,67.07,97.8,72,0
COHM,11/27/94,88.65486111,5.545519951,76.07,97.58,72,0
COHM,11/28/94,90.44111111,6.747301298,75.78,99.6,72,0
COHM,11/29/94,86.32375,6.7497137,72.22,93.82,72,0
COHM,11/30/94,72.36333333,7.447699522,55.89,84.05,72,0
COHM,12/1/94,65.86791667,4.481802623,59.54,79.94,72,0
COHM,12/2/94,68.38847222,7.667025914,57.67,82.59,72,0
COHM,12/3/94,61.56902778,4.997207998,50.04,73.68,72,0
COHM,12/4/94,87.49,5.051649849,70.01,96.36,72,0
COHM,12/5/94,75.59125,10.526228,61.21,96.05,72,0
COHM,12/6/94,64.58944444,5.679980631,53.66,75.81,72,0
COHM,12/7/94,55.93791667,2.446107536,51.95,63.19,72,0
COHM,12/8/94,55.58625,2.601302186,51.54,63.56,72,0
COHM,12/9/94,49.94972222,6.036616432,41.37,63.64,72,0
COHM,12/10/94,45.63083333,3.98746725,38.04,54.09,72,0
COHM,12/11/94,49.28388889,3.794221164,39.86,55.68,72,0
COHM,12/12/94,51.13930556,8.684880715,34.33,70.48,72,0
COHM,12/13/94,63.45361111,19.69811969,45.58,97.95,72,0
COHM,12/14/94,96.91472222,4.055834598,87.89,99.99,72,28
COHM,12/15/94,93.81319444,6.476207555,73.62,99.99,72,12
COHM,12/16/94,96.35486111,6.990369632,72.3,99.99,72,31
COHM,12/17/94,90.88138889,5.470448473,83.47,99.99,72,4
COHM,12/18/94,94.87847222,5.315417824,81.43,99.99,72,19
COHM,12/19/94,85.7925,7.352802043,73.13,99.99,72,2
COHM,12/20/94,83.18930556,8.900447896,69.71,99.99,72,8
COHM,12/21/94,86.48791667,13.11273523,69.66,99.99,72,21
COHM,12/22/94,79.36763889,10.38918147,64.6,99.55,72,0
COHM,12/23/94,87.25527778,9.102084264,75.32,99.99,72,1
COHM,12/24/94,74.11458333,8.523356797,60.47,94.76,72,0
COHM,12/25/94,74.52930556,9.567146148,52.39,96.18,72,0
COHM,12/26/94,55.66527778,6.106919643,39.46,66.92,72,0
COHM,12/27/94,49.14722222,3.116940637,41.12,53.13,72,0
COHM,12/28/94,66.37222222,10.21778954,46.82,99.99,72,1
COHM,12/29/94,59.29458333,11.25869816,35.7,86.44,72,0
COHM,12/30/94,65.91722222,5.744758106,57.96,82.05,72,0
COHM,12/31/94,80.9775,8.544221134,63.16,94.72,72,0
COHM,1/1/95,69.30777778,9.31460964,47.4,84.69,72,0
COHM,1/2/95,80.58444444,13.362019,55.41,99.99,72,15
COHM,1/3/95,99.99,0,99.99,99.99,72,72
COHM,1/4/95,83.53513889,11.15101751,69.97,99.99,72,15
COHM,1/5/95,68.05430556,6.216766477,59.9,80.74,72,0
COHM,1/6/95,96.81555556,5.439868186,77.27,99.99,72,37
COHM,1/7/95,86.51694444,14.57066353,54.8,99.99,72,19
COHM,1/8/95,58.08638889,5.789277681,48.51,66.47,72,0
COHM,1/9/95,61.43944444,13.62721902,45.31,86.16,72,0
COHM,1/10/95,52.22611111,8.243957848,36.75,76.85,72,0
COHM,1/11/95,68.84555556,15.85130669,49.49,94.47,72,0
COHM,1/12/95,91.94652778,4.967660248,85.09,99.99,72,10
COHM,1/13/95,92.35736111,6.454648504,76.42,99.99,72,8
COHM,1/14/95,86.81583333,8.495527199,73.64,99.99,72,4
COHM,1/15/95,88.20402778,7.427056107,73.27,98.07,72,0
COHM,1/16/95,68.4325,13.48404417,51.74,90.38,72,0
COHM,1/17/95,56.12847222,2.418164046,50.93,61.49,72,0
COHM,1/18/95,82.27166667,14.15645446,57.25,99.33,72,0
COHM,1/19/95,86.72583333,11.41787168,57.6,99.99,72,8
COHM,1/20/95,87.52986111,9.583515556,67.69,99.99,72,10
COHM,1/21/95,61.01916667,10.75690983,49.86,80.58,72,0
COHM,1/22/95,57.70861111,9.978045521,49.43,87.42,72,0
COHM,1/23/95,79.75681159,6.261441408,67.67,88.44,69,0
COHM,1/24/95,85.2975,4.852693676,75.67,99.99,72,1
COHM,1/25/95,80.67013889,16.86977909,58.58,99.99,72,24
COHM,1/26/95,82.57,11.44771925,62.3,97.54,72,0
COHM,1/27/95,67.50013889,14.17680515,49.93,99.99,72,1
COHM,1/28/95,81.20652778,14.4423896,59.38,99.99,72,11
COHM,1/29/95,74.78041667,7.000329457,64.85,87.19,72,0
COHM,1/30/95,67.38236111,7.056745947,54.75,80.28,72,0
COHM,1/31/95,72.83888889,8.306351474,61.99,89.77,72,0
COHM,2/1/95,41.49194444,8.414677592,29.37,68.44,72,0
COHM,2/2/95,35.50833333,11.22636673,23.9,70.65,72,0
COHM,2/3/95,63.04555556,16.18509825,32.86,84.04,72,0
COHM,2/4/95,67.92083333,6.852743,49.01,85.93,72,0
COHM,2/5/95,55.80833333,25.54489916,28.63,92.92,72,0
COHM,2/6/95,36.83277778,7.403585964,27.87,58,72,0
COHM,2/7/95,63.19597222,18.0032248,39.38,92.54,72,0
COHM,2/8/95,77.30763889,9.658638474,55.32,91.98,72,0
COHM,2/9/95,67.08013889,12.13005329,33.54,88.84,72,0
COHM,2/10/95,78.44569444,8.565970477,68,99.23,72,0
COHM,2/11/95,90.11777778,9.487101729,69.97,99.99,72,22
COHM,2/12/95,77.23944444,10.44897689,55.49,92.28,72,0
COHM,2/13/95,66.73847222,12.9837009,44.6,94.92,72,0
COHM,2/14/95,83.03319444,10.97524344,68.79,99.99,72,7
COHM,2/15/95,93.22319444,7.330202585,74.04,99.99,72,20
COHM,2/16/95,79.64527778,10.13064824,61.99,94.08,72,0
COHM,2/17/95,85.24444444,7.517640829,73.27,95,72,0
COHM,2/18/95,66.44097222,7.862632459,47.35,79.56,72,0
COHM,2/19/95,54.91736111,6.231787886,45.02,63.61,72,0
COHM,2/20/95,60.14930556,15.65841045,42.73,99.12,72,0
COHM,2/21/95,49.81722222,5.973546667,44.78,71.03,72,0
COHM,2/22/95,73.59736111,22.16888392,45.78,99.99,72,19
COHM,2/23/95,87.47125,13.41819198,49.17,99.99,72,18
COHM,2/24/95,94.75125,7.533033719,75.8,99.99,72,43
COHM,2/25/95,95.18722222,4.819613456,84.52,99.99,72,28
COHM,2/26/95,76.98638889,12.91385012,61.08,99.99,72,3
COHM,2/27/95,99.68888889,1.177311996,93.92,99.99,72,67
COHM,2/28/95,90.07833333,9.63932731,70.48,99.99,72,20
COHM,3/1/95,61.22263889,2.751522494,56.03,69.27,72,0
COHM,3/2/95,58.52083333,6.978134209,45.12,68.66,72,0
COHM,3/3/95,61.13791667,3.815712858,52.57,71.07,72,0
COHM,3/4/95,85.11777778,20.67971206,49.97,99.99,72,45
COHM,3/5/95,91.41055556,13.52175117,54.63,99.99,72,32
COHM,3/6/95,75.13083333,11.57242957,50.05,95.99,72,0
COHM,3/7/95,83.73680556,11.51775578,65.77,99.99,72,16
COHM,3/8/95,96.41777778,6.059539847,76.69,99.99,72,28
COHM,3/9/95,97.22833333,2.419891745,90.88,99.99,72,5
COHM,3/10/95,91.15986111,2.558304617,87.2,96.91,72,0
COHM,3/11/95,93.22194444,2.233880372,89.23,98.15,72,0
COHM,3/12/95,96.67375,1.713898807,92.97,98.56,72,0
COHM,3/13/95,71.07,9.594436181,60.36,93.14,72,0
COHM,3/14/95,60.20430556,5.412868555,50.69,69.31,72,0
COHM,3/15/95,75.43930556,9.02381268,66.52,93.83,72,0
COHM,3/16/95,85.04680556,12.41846,60.18,97.54,72,0
COHM,3/17/95,68.59375,14.9897837,42.93,96.91,72,0
COHM,3/18/95,80.61680556,9.86002283,59.61,95.48,72,0
COHM,3/19/95,92.37055556,6.27952853,81.78,97.91,72,0
COHM,3/20/95,73.99430556,5.656513341,61.87,81.21,72,0
COHM,3/21/95,73.70833333,7.765327415,62.06,92.52,72,0
COHM,3/22/95,86.81972222,4.810094717,81.2,93.56,72,0
COHM,3/23/95,72.83708333,5.437213049,55.67,81.48,72,0
COHM,3/24/95,51.15,1.095510318,48.63,53.3,71,0
COHM,3/25/95,50.13125,1.331162721,46.37,53,72,0
COHM,3/26/95,59.91875,7.231098905,52.47,74.34,72,0
COHM,3/27/95,64.96236111,8.195637536,53.48,76.55,72,0
COHM,3/28/95,59.17875,11.54622747,51,97.16,72,0
COHM,3/29/95,93.57930556,6.50142115,73.64,98.01,72,0
COHM,3/30/95,82.02916667,14.8894267,60.18,96.26,72,0
COHM,3/31/95,52.76722222,4.229986256,48.18,62.81,72,0
COHM,4/1/95,63.385,6.961150747,49.57,73.68,72,0
COHM,4/2/95,52.19888889,7.378351195,41.01,70.15,72,0
COHM,4/3/95,73.90291667,3.467025529,61.42,80.48,72,0
COHM,4/4/95,74.96666667,10.19420437,62.01,90.57,72,0
COHM,4/5/95,68.47166667,15.95478753,52.13,91.99,72,0
COHM,4/6/95,85.35125,6.603266784,59.9,89.81,72,0
COHM,4/7/95,58.75944444,9.020413296,48.43,80.11,72,0
COHM,4/8/95,62.62902778,5.952250648,48.02,73.9,72,0
COHM,4/9/95,51.57277778,6.685605985,41.35,62.31,72,0
COHM,4/10/95,70.69013889,18.02792087,45.89,95.86,72,0
COHM,4/11/95,65.54694444,5.351101411,53.28,79.24,72,0
COHM,4/12/95,52.44555556,4.412495027,44.82,60.17,72,0
COHM,4/13/95,93.14972222,9.940777873,42.72,97.29,72,0
COHM,4/14/95,78.40430556,10.62949787,57.22,92.71,72,0
COHM,4/15/95,92.00291667,6.009185794,80.63,98.2,72,0
COHM,4/16/95,97.58611111,0.292380013,96.38,97.98,72,0
COHM,4/17/95,93.58291667,3.505019916,84.5,96.92,72,0
COHM,4/18/95,93.26013889,3.356425619,85.78,95.9,72,0
COHM,4/19/95,80.14847222,2.454709564,75.81,85.98,72,0
COHM,4/20/95,63.51902778,11.35789719,47.82,84.1,72,0
COHM,4/21/95,84.065,7.803499396,56.47,91.04,72,0
COHM,4/22/95,88.22,0.74459366,84.6,89.11,72,0
COHM,4/23/95,86.80777778,1.624820009,83.19,88.71,72,0
COHM,4/24/95,87.02416667,2.208862272,77.72,88.42,72,0
COHM,4/25/95,65.51180556,5.918503172,54.61,76.94,72,0
COHM,4/26/95,52.09666667,3.667838524,47.35,69.51,72,0
COHM,4/27/95,52.42847222,12.17219524,40.14,79.04,72,0
COHM,4/28/95,83.23736111,6.874749674,67.45,89.67,72,0
COHM,4/29/95,82.51875,7.786142971,58.1,88.96,72,0
COHM,4/30/95,49.41,5.72406804,36.12,57.04,72,0
COHM,5/1/95,66.79361111,12.23735522,40.02,77.91,72,0
COHM,5/2/95,67.85555556,3.655281299,63.67,74.75,72,0
COHM,5/3/95,58.50166667,10.5719833,46.77,77.67,72,0
COHM,5/4/95,82.35694444,7.777895301,53.18,85.98,72,0
COHM,5/5/95,61.50472222,17.78000467,41.81,87.75,72,0
COHM,5/6/95,64.60861111,17.33283778,42.64,94.89,72,0
COHM,5/7/95,60.80666667,11.98155014,44.25,86.05,72,0
COHM,5/8/95,66.53972222,13.48203008,44.67,86.3,72,0
COHM,5/9/95,53.65902778,10.98634943,38.47,72.23,72,0
COHM,5/10/95,71.35722222,12.12280742,51.23,92.11,72,0